[[{"header":{"parameterUnit":"m.s-1","parameterCategory":2,"la1":30.2992,"la2":30.254,"lo1":-89.0895,"lo2":-89.0443,"dy":0.0025,"dx":0.0025,"nx":19,"ny":19,"refTime":"2026-05-14T09:00:00:Z","depth":"0","parameterNumber":2,"parameterNumberName":"U-component_of_CURRENTS"},"data":[0,0,0,-0.3476,-0.3479,-0.3613,-0.3614,-0.3665,-0.3666,0,0,0,0,0,0,0,0,0,0,0,-0.3435,-0.3436,-0.3476,-0.348,-0.3613,-0.3614,-0.3665,-0.3666,0,0,0,0,0,0,0,0,0,0,0,-0.3435,-0.3436,-0.3438,-0.348,-0.3613,-0.3614,-0.3665,-0.3594,0,0,0,0,0,0,0,0,0,0,-0.3478,-0.3427,-0.3436,-0.3438,-0.3481,-0.3613,-0.3614,-0.3591,-0.3598,-0.3571,0,-0.3606,0,-0.3633,-0.3666,-0.3667,0,0,0,-0.3477,-0.3422,-0.3489,-0.3438,-0.3482,-0.3613,-0.3552,-0.3596,-0.3603,-0.3579,-0.3607,-0.3609,-0.3634,-0.3667,-0.3667,-0.3865,-0.3867,0,0,-0.347,-0.3424,-0.3485,-0.3494,-0.3532,-0.3548,-0.3556,-0.3602,-0.3593,-0.3607,-0.3611,-0.3635,-0.3667,-0.3667,-0.3863,-0.3866,0,0,0,-0.345,-0.3419,-0.3487,-0.3491,-0.3523,-0.3552,-0.3562,-0.3591,-0.3624,-0.3612,-0.3636,-0.3667,-0.3667,-0.3861,-0.3864,-0.3992,0,0,0,-0.3446,-0.3409,-0.3484,-0.3452,-0.3524,-0.3567,-0.3549,-0.3621,-0.3628,-0.3635,-0.3667,-0.3667,-0.3858,-0.3862,-0.3984,-0.3931,0,0,0,-0.3427,-0.3405,-0.3433,-0.3451,-0.3513,-0.3568,-0.3602,-0.3624,-0.3641,-0.3667,-0.3667,-0.3857,-0.3862,-0.3976,-0.3923,-0.3708,0,0,0,-0.3357,-0.3471,-0.3432,-0.3581,-0.3512,-0.3729,-0.3603,-0.3718,-0.3761,-0.3667,-0.3859,-0.3864,-0.3974,-0.3918,-0.3708,-0.3292,-0.3261,0,0,-0.3485,-0.3483,-0.3589,-0.3561,-0.3773,-0.3709,-0.3917,-0.3886,-0.382,-0.3828,-0.3834,-0.3986,-0.3922,-0.3708,-0.3577,-0.3536,0,0,0,-0.3625,-0.3656,-0.3734,-0.3826,-0.3965,-0.4011,-0.4034,-0.4031,-0.4041,-0.3867,-0.4051,-0.4005,-0.3864,-0.3617,-0.3589,-0.3498,-0.3886,-0.3886,-0.3885,-0.3531,-0.3689,-0.382,-0.3989,-0.412,-0.4234,-0.4275,-0.4256,-0.4226,-0.4259,-0.4163,-0.4154,-0.3911,-0.3879,-0.3803,-0.4281,-0.4282,-0.4282,-0.4282,-0.3554,-0.3578,-0.3781,-0.3949,-0.4086,-0.4223,-0.4392,-0.4395,-0.4344,-0.437,-0.4226,-0.3836,-0.3851,-0.3782,-0.4292,-0.429,-0.4289,-0.4288,-0.4287,-0.3338,-0.3381,-0.3512,-0.3703,-0.3846,-0.4072,-0.4069,-0.4234,-0.4311,-0.429,-0.3777,-0.3769,-0.363,-0.4138,-0.4137,-0.4136,-0.4135,-0.4134,-0.4133,-0.2993,-0.3168,-0.3161,-0.3413,-0.3443,-0.3558,-0.3792,-0.3781,-0.3729,-0.3785,-0.3779,-0.3619,-0.4103,-0.4019,-0.4117,-0.412,-0.4122,-0.4124,-0.4125,-0.2648,-0.2735,-0.2723,-0.2741,-0.2861,-0.2819,-0.3103,-0.3024,-0.3036,-0.2916,-0.3064,-0.3464,-0.3297,-0.3318,-0.3214,-0.3096,-0.3096,-0.3096,-0.3096,-0.2291,-0.2391,-0.2259,-0.2222,-0.2227,-0.2437,-0.2191,-0.2283,-0.2403,-0.2418,-0.2609,-0.2654,-0.2699,-0.2506,-0.2546,-0.2431,-0.2117,-0.2117,-0.2116,-0.1937,-0.201,-0.1791,-0.1928,-0.1932,-0.1983,-0.1749,-0.1724,-0.1909,-0.2091,-0.258,-0.2621,-0.2726,-0.2803,-0.2538,-0.26,-0.2425,0,0]},{"header":{"parameterUnit":"m.s-1","parameterCategory":2,"la1":30.2992,"la2":30.254,"lo1":-89.0895,"lo2":-89.0443,"dy":0.0025,"dx":0.0025,"nx":19,"ny":19,"refTime":"2026-05-14T09:00:00:Z","depth":"0","parameterNumber":3,"parameterNumberName":"V-component_of_CURRENTS"},"data":[0,0,0,0.0295,0.0297,0.0427,0.0427,0.0639,0.064,0,0,0,0,0,0,0,0,0,0,0,0.0237,0.0238,0.0294,0.0297,0.0426,0.0427,0.0638,0.064,0,0,0,0,0,0,0,0,0,0,0,0.0237,0.0237,0.0238,0.0297,0.0426,0.0427,0.0638,0.0533,0,0,0,0,0,0,0,0,0,0,0.0404,0.0333,0.0237,0.0238,0.0298,0.0426,0.0427,0.0528,0.054,0.0586,0,0.0583,0,0.0615,0.0654,0.0654,0,0,0,0.0317,0.0322,0.036,0.0238,0.0299,0.0426,0.0374,0.0535,0.0548,0.0602,0.0586,0.0595,0.0618,0.0655,0.0656,0.0828,0.0828,0,0,0.031,0.0268,0.0351,0.0368,0.0304,0.0369,0.0377,0.0542,0.0544,0.0587,0.06,0.0622,0.0656,0.0658,0.0828,0.0828,0,0,0,0.0276,0.0263,0.0297,0.0359,0.0378,0.0373,0.0382,0.0536,0.0547,0.0602,0.0624,0.0657,0.066,0.0827,0.0828,0.0736,0,0,0,0.0272,0.0242,0.0293,0.0271,0.0373,0.0452,0.0372,0.0536,0.0555,0.0623,0.0657,0.0662,0.0827,0.0828,0.0737,0.0629,0,0,0,0.0237,0.0239,0.0245,0.0268,0.0317,0.045,0.0471,0.0541,0.0569,0.0654,0.0662,0.0826,0.0827,0.0739,0.0634,0.0584,0,0,0,0.0204,0.0154,0.0243,0.0219,0.0315,0.0391,0.047,0.0539,0.0604,0.0658,0.0827,0.0828,0.0739,0.0637,0.0588,0.0605,0.059,0,0,0.0113,0.0142,0.0133,0.0216,0.0238,0.0376,0.0444,0.0557,0.0641,0.0778,0.0783,0.0737,0.0634,0.0585,0.066,0.0643,0,0,0,0.0089,0.0062,0.0092,0.0134,0.0241,0.0343,0.0486,0.0565,0.0686,0.0682,0.0782,0.072,0.0691,0.0712,0.07,0.0947,0.0832,0.0832,0.0832,-0.0157,-0.0056,-0.0073,0.0053,0.0136,0.0335,0.042,0.0561,0.0667,0.0712,0.0682,0.0621,0.0648,0.0637,0.0894,0.0761,0.0761,0.0761,0.0761,-0.0348,-0.035,-0.0203,-0.0191,-0.0004,0.0087,0.035,0.0452,0.0564,0.0657,0.0637,0.0659,0.0617,0.0896,0.0755,0.0756,0.0757,0.0758,0.0758,-0.0535,-0.0509,-0.0485,-0.0413,-0.0311,-0.008,0.0011,0.0214,0.0408,0.0418,0.0464,0.0467,0.0676,0.042,0.0419,0.0419,0.0418,0.0418,0.0417,-0.0721,-0.0678,-0.0709,-0.063,-0.0582,-0.0473,-0.0202,-0.0092,0.0136,0.032,0.0323,0.0702,0.0516,0.0488,0.0407,0.0409,0.041,0.0411,0.0412,-0.087,-0.0861,-0.0908,-0.0899,-0.0811,-0.0726,-0.0511,-0.0221,-0.0099,0.0018,0.0563,0.0304,0.032,0.0334,0.0303,0.0178,0.0178,0.0178,0.0178,-0.0967,-0.0969,-0.1009,-0.1014,-0.0998,-0.0821,-0.0596,-0.0242,0.0256,0.0535,0.0608,0.0757,0.0755,0.0807,0.081,0.0795,0.0797,0.0799,0.08,-0.1018,-0.1026,-0.1057,-0.1064,-0.1043,-0.0894,-0.0575,-0.0055,0.0603,0.0852,0.0947,0.0921,0.1172,0.1149,0.126,0.1245,0.1229,0,0]}],[{"header":{"parameterUnit":"m.s-1","parameterCategory":2,"la1":30.2992,"la2":30.254,"lo1":-89.0895,"lo2":-89.0443,"dy":0.0025,"dx":0.0025,"nx":19,"ny":19,"refTime":"2026-05-14T09:00:00:Z","depth":"2","parameterNumber":2,"parameterNumberName":"U-component_of_CURRENTS"},"data":[0,0,0,-0.3056,-0.3057,-0.3106,-0.3106,-0.3163,-0.3164,0,0,0,0,0,0,0,0,0,0,0,-0.3044,-0.3044,-0.3056,-0.3058,-0.3106,-0.3106,-0.3163,-0.3164,0,0,0,0,0,0,0,0,0,0,0,-0.3044,-0.3044,-0.3045,-0.3058,-0.3106,-0.3106,-0.3163,-0.3128,0,0,0,0,0,0,0,0,0,0,-0.3082,-0.3076,-0.3044,-0.3045,-0.3058,-0.3106,-0.3106,-0.3126,-0.313,-0.314,0,-0.3151,0,-0.3157,-0.3167,-0.3168,0,0,0,-0.3059,-0.3073,-0.308,-0.3045,-0.3058,-0.3106,-0.3084,-0.3129,-0.3133,-0.3145,-0.3152,-0.3154,-0.3158,-0.3168,-0.3168,-0.337,-0.3372,0,0,-0.3056,-0.3058,-0.3077,-0.3083,-0.3077,-0.3083,-0.3086,-0.3131,-0.3142,-0.3152,-0.3156,-0.3159,-0.3168,-0.3168,-0.3368,-0.337,0,0,0,-0.3048,-0.3056,-0.3063,-0.308,-0.3088,-0.3084,-0.3088,-0.314,-0.314,-0.3156,-0.3159,-0.3168,-0.3169,-0.3366,-0.3369,-0.3439,0,0,0,-0.3046,-0.3051,-0.3061,-0.3064,-0.3088,-0.3117,-0.3095,-0.3137,-0.3143,-0.3159,-0.3168,-0.317,-0.3364,-0.3368,-0.3433,-0.3234,0,0,0,-0.3041,-0.305,-0.3056,-0.3063,-0.3083,-0.3116,-0.312,-0.3139,-0.3144,-0.3168,-0.317,-0.3363,-0.3367,-0.3427,-0.3233,-0.3243,0,0,0,-0.304,-0.305,-0.3057,-0.3139,-0.3082,-0.3226,-0.3119,-0.3235,-0.3279,-0.3169,-0.3364,-0.3369,-0.3426,-0.3232,-0.3243,-0.2855,-0.2827,0,0,-0.3046,-0.3051,-0.312,-0.3127,-0.3219,-0.3218,-0.3353,-0.3357,-0.3337,-0.3344,-0.3349,-0.3435,-0.3233,-0.3243,-0.3104,-0.3066,0,0,0,-0.3125,-0.3126,-0.3196,-0.3242,-0.3357,-0.3398,-0.3468,-0.3458,-0.3487,-0.3377,-0.3504,-0.3369,-0.3375,-0.3145,-0.3119,-0.3389,-0.3389,-0.3388,-0.3388,-0.2945,-0.3071,-0.313,-0.3291,-0.3418,-0.3525,-0.3585,-0.3571,-0.3622,-0.3664,-0.349,-0.3591,-0.3359,-0.3331,-0.3681,-0.3681,-0.3682,-0.3682,-0.3682,-0.2869,-0.2877,-0.3033,-0.3135,-0.3252,-0.3369,-0.3563,-0.3617,-0.3609,-0.3607,-0.3621,-0.3301,-0.3303,-0.3689,-0.3688,-0.3687,-0.3686,-0.3685,-0.3685,-0.2718,-0.2714,-0.2821,-0.2925,-0.2979,-0.3214,-0.3221,-0.3374,-0.3519,-0.3532,-0.326,-0.3253,-0.3486,-0.3569,-0.3568,-0.3567,-0.3567,-0.3566,-0.3566,-0.2466,-0.2565,-0.2561,-0.272,-0.2737,-0.2827,-0.2982,-0.3029,-0.3053,-0.3128,-0.3129,-0.3548,-0.3552,-0.3477,-0.3555,-0.3557,-0.3558,-0.3559,-0.356,-0.222,-0.2302,-0.2288,-0.2302,-0.2366,-0.2334,-0.2559,-0.2513,-0.2588,-0.2518,-0.2967,-0.2985,-0.2867,-0.2886,-0.2795,-0.269,-0.269,-0.269,-0.269,-0.1973,-0.2047,-0.1955,-0.1939,-0.194,-0.2076,-0.1893,-0.1936,-0.2132,-0.2226,-0.2248,-0.2256,-0.2298,-0.2153,-0.2189,-0.2085,-0.1796,-0.1795,-0.1794,-0.1718,-0.1767,-0.161,-0.1716,-0.1727,-0.1748,-0.1537,-0.1425,-0.154,-0.1776,-0.2264,-0.2597,-0.2669,-0.2713,-0.2539,-0.2578,-0.2431,0,0]},{"header":{"parameterUnit":"m.s-1","parameterCategory":2,"la1":30.2992,"la2":30.254,"lo1":-89.0895,"lo2":-89.0443,"dy":0.0025,"dx":0.0025,"nx":19,"ny":19,"refTime":"2026-05-14T09:00:00:Z","depth":"2","parameterNumber":3,"parameterNumberName":"V-component_of_CURRENTS"},"data":[0,0,0,0.009,0.0092,0.02,0.0201,0.0397,0.0399,0,0,0,0,0,0,0,0,0,0,0,0.0045,0.0045,0.009,0.0092,0.02,0.0201,0.0397,0.0399,0,0,0,0,0,0,0,0,0,0,0,0.0045,0.0045,0.0045,0.0092,0.02,0.0201,0.0397,0.0307,0,0,0,0,0,0,0,0,0,0,0.0197,0.0152,0.0045,0.0045,0.0092,0.02,0.0201,0.0302,0.0313,0.0356,0,0.0347,0,0.0371,0.0411,0.0411,0,0,0,0.0119,0.0143,0.0154,0.0045,0.0093,0.0199,0.0159,0.0308,0.0319,0.037,0.035,0.0357,0.0374,0.0412,0.0413,0.0597,0.0598,0,0,0.0113,0.0093,0.0145,0.016,0.0089,0.0155,0.0162,0.0314,0.0325,0.0351,0.0362,0.0377,0.0413,0.0415,0.0597,0.0597,0,0,0,0.0077,0.0089,0.0096,0.0152,0.0163,0.0158,0.0165,0.0319,0.0315,0.0364,0.0379,0.0414,0.0416,0.0596,0.0597,0.0539,0,0,0,0.0075,0.0066,0.0092,0.0087,0.0158,0.0238,0.0167,0.0304,0.0322,0.0378,0.0414,0.0418,0.0595,0.0596,0.0539,0.0367,0,0,0,0.0045,0.0065,0.0062,0.0084,0.0118,0.0236,0.0243,0.0309,0.0331,0.0412,0.0419,0.0595,0.0596,0.0539,0.0372,0.0375,0,0,0,0.0045,-0.0032,0.0061,0.0028,0.0116,0.0174,0.0242,0.0316,0.038,0.0415,0.0595,0.0597,0.0539,0.0376,0.0378,0.0389,0.0377,0,0,-0.0072,-0.0046,-0.0057,0.0027,0.0025,0.0163,0.0241,0.0353,0.0425,0.0552,0.0556,0.0539,0.0373,0.0376,0.0483,0.0467,0,0,0,-0.0104,-0.0134,-0.0103,-0.007,0.0027,0.0131,0.0288,0.0373,0.0502,0.0466,0.0588,0.0483,0.0488,0.0504,0.0493,0.0604,0.0604,0.0604,0.0604,-0.034,-0.0254,-0.0273,-0.0152,-0.0076,0.0127,0.0234,0.0382,0.0499,0.0563,0.048,0.0476,0.05,0.049,0.0608,0.0608,0.0608,0.0608,0.0608,-0.0525,-0.052,-0.0395,-0.0393,-0.022,-0.0124,0.0161,0.0286,0.0418,0.049,0.0505,0.0492,0.0473,0.0604,0.0605,0.0605,0.0606,0.0606,0.0606,-0.0664,-0.0651,-0.063,-0.0582,-0.0507,-0.0275,-0.0173,0.0027,0.025,0.0269,0.0332,0.0334,0.0362,0.031,0.0309,0.0308,0.0308,0.0307,0.0307,-0.0802,-0.0778,-0.0809,-0.0753,-0.0714,-0.0617,-0.0387,-0.0253,-0.0026,0.0165,0.0169,0.0374,0.0383,0.0346,0.0296,0.0298,0.0299,0.03,0.0301,-0.092,-0.0912,-0.096,-0.0954,-0.0877,-0.0799,-0.0608,-0.0337,-0.0206,-0.0085,0.0181,0.0188,0.0183,0.0196,0.0155,0.0058,0.0058,0.0058,0.0058,-0.0989,-0.0994,-0.1035,-0.1041,-0.1015,-0.0865,-0.0655,-0.0346,-0.0068,0.0075,0.0075,0.0186,0.0196,0.0198,0.0211,0.0173,0.008,0.008,0.008,-0.1028,-0.1039,-0.1071,-0.1082,-0.1051,-0.0913,-0.0655,-0.0244,0.0074,0.0082,0.0089,0.0057,0.0227,0.0239,0.0253,0.0268,0.0213,0,0]}],[{"header":{"parameterUnit":"m.s-1","parameterCategory":2,"la1":30.2992,"la2":30.254,"lo1":-89.0895,"lo2":-89.0443,"dy":0.0025,"dx":0.0025,"nx":19,"ny":19,"refTime":"2026-05-14T09:00:00:Z","depth":"4","parameterNumber":2,"parameterNumberName":"U-component_of_CURRENTS"},"data":[0,0,0,-0.0882,-0.0883,-0.0984,-0.0984,-0.123,-0.1232,0,0,0,0,0,0,0,0,0,0,0,-0.0861,-0.0862,-0.0881,-0.0883,-0.0983,-0.0984,-0.1229,-0.1232,0,0,0,0,0,0,0,0,0,0,0,-0.0861,-0.0862,-0.0862,-0.0883,-0.0983,-0.0984,-0.1229,-0.1129,0,0,0,0,0,0,0,0,0,0,-0.102,-0.0982,-0.0862,-0.0862,-0.0884,-0.0983,-0.0984,-0.1124,-0.1136,-0.121,0,-0.122,0,-0.1218,-0.1249,-0.125,0,0,0,-0.0907,-0.0972,-0.0986,-0.0863,-0.0884,-0.0983,-0.0945,-0.113,-0.1143,-0.1226,-0.1223,-0.1231,-0.1222,-0.125,-0.1252,-0.1463,-0.1463,0,0,-0.0901,-0.0899,-0.0976,-0.0994,-0.0906,-0.0942,-0.0948,-0.1137,-0.116,-0.1223,-0.1236,-0.1226,-0.1252,-0.1254,-0.1462,-0.1463,0,0,0,-0.0869,-0.0895,-0.0904,-0.0986,-0.0987,-0.0944,-0.0951,-0.1152,-0.1151,-0.1238,-0.1229,-0.1253,-0.1256,-0.1462,-0.1462,-0.1452,0,0,0,-0.0867,-0.0874,-0.0901,-0.0903,-0.0982,-0.1056,-0.0962,-0.1138,-0.1159,-0.1228,-0.1253,-0.1259,-0.1461,-0.1462,-0.1451,-0.1547,0,0,0,-0.0857,-0.0873,-0.088,-0.0902,-0.0931,-0.1051,-0.1063,-0.1142,-0.1153,-0.125,-0.126,-0.1461,-0.1462,-0.145,-0.1543,-0.1621,0,0,0,-0.0859,-0.0885,-0.088,-0.0915,-0.093,-0.0997,-0.1061,-0.1169,-0.1256,-0.1255,-0.1461,-0.1462,-0.145,-0.154,-0.1617,-0.1385,0,0,0,-0.089,-0.0889,-0.0908,-0.0905,-0.0976,-0.0985,-0.1053,-0.121,-0.1292,-0.1411,-0.1415,-0.1451,-0.1543,-0.162,-0.1446,0,0,0,0,-0.0916,-0.0959,-0.0978,-0.1014,-0.103,-0.1093,-0.1167,-0.1216,-0.1366,-0.1339,-0.1475,-0.1536,-0.1584,-0.1438,-0.1467,-0.1467,-0.1467,-0.1467,-0.1467,-0.1074,-0.1044,-0.1115,-0.1111,-0.1151,-0.1181,-0.1251,-0.1338,-0.1367,-0.1439,-0.1539,-0.1624,-0.1464,-0.1501,-0.1501,-0.1501,-0.1501,-0.1501,-0.1501,-0.1181,-0.1199,-0.1232,-0.1287,-0.13,-0.1357,-0.1408,-0.1424,-0.1563,-0.155,-0.1593,-0.1451,-0.1501,-0.1501,-0.1501,-0.1501,-0.1501,-0.1501,-0.1501,-0.1243,-0.1239,-0.1287,-0.1349,-0.1475,-0.1502,-0.1608,-0.1641,-0.1672,-0.1718,-0.161,-0.1678,-0.1669,-0.1742,-0.1743,-0.1744,-0.1745,-0.1745,-0.1745,-0.1241,-0.1281,-0.1329,-0.1432,-0.1523,-0.1646,-0.1751,-0.1784,-0.1805,-0.1675,-0.1777,-0.1708,-0.1701,-0.1687,-0.1757,-0.1755,-0.1753,-0.1752,-0.1752,-0.1228,-0.1231,-0.1282,-0.1358,-0.1538,-0.1608,-0.1775,-0.1749,-0.1778,-0.1715,-0.1629,-0.1632,-0.165,-0.1646,-0.163,-0.1686,-0.1683,-0.1681,0,-0.1209,-0.1214,-0.1245,-0.1312,-0.1405,-0.1565,-0.1537,-0.1582,-0.1592,-0.1536,-0.1767,-0.1672,-0.167,-0.1689,-0.1681,-0.1661,0,0,0,-0.1203,-0.1205,-0.1191,-0.1223,-0.1322,-0.1385,-0.1509,-0.1448,-0.1617,-0.1535,-0.1615,-0.1632,-0.1684,-0.1791,-0.1829,-0.1819,-0.1802,0,0]},{"header":{"parameterUnit":"m.s-1","parameterCategory":2,"la1":30.2992,"la2":30.254,"lo1":-89.0895,"lo2":-89.0443,"dy":0.0025,"dx":0.0025,"nx":19,"ny":19,"refTime":"2026-05-14T09:00:00:Z","depth":"4","parameterNumber":3,"parameterNumberName":"V-component_of_CURRENTS"},"data":[0,0,0,-0.0531,-0.0531,-0.0542,-0.0542,-0.0573,-0.0574,0,0,0,0,0,0,0,0,0,0,0,-0.053,-0.053,-0.053,-0.0531,-0.0542,-0.0542,-0.0573,-0.0574,0,0,0,0,0,0,0,0,0,0,0,-0.053,-0.053,-0.053,-0.0531,-0.0542,-0.0542,-0.0573,-0.056,0,0,0,0,0,0,0,0,0,0,-0.0546,-0.0543,-0.053,-0.053,-0.0531,-0.0542,-0.0542,-0.0559,-0.056,-0.0574,0,-0.0581,0,-0.0579,-0.0576,-0.0577,0,0,0,-0.0527,-0.0542,-0.0547,-0.053,-0.0531,-0.0542,-0.0536,-0.056,-0.0561,-0.0576,-0.0581,-0.0582,-0.058,-0.0577,-0.0577,-0.0654,-0.0655,0,0,-0.0527,-0.0529,-0.0545,-0.0548,-0.0542,-0.0536,-0.0537,-0.056,-0.0565,-0.0582,-0.0583,-0.058,-0.0577,-0.0577,-0.0654,-0.0654,0,0,0,-0.0527,-0.0529,-0.0533,-0.0547,-0.0548,-0.0536,-0.0537,-0.0564,-0.0566,-0.0583,-0.058,-0.0577,-0.0578,-0.0653,-0.0654,-0.0633,0,0,0,-0.0527,-0.053,-0.0533,-0.0534,-0.0548,-0.0554,-0.054,-0.0565,-0.0567,-0.058,-0.0577,-0.0578,-0.0653,-0.0654,-0.0632,-0.0596,0,0,0,-0.0528,-0.0529,-0.0533,-0.0534,-0.054,-0.0553,-0.0556,-0.0565,-0.0566,-0.0577,-0.0578,-0.0652,-0.0653,-0.0632,-0.0596,-0.0508,0,0,0,-0.0526,-0.0552,-0.0534,-0.0575,-0.054,-0.0595,-0.0556,-0.0594,-0.0611,-0.0577,-0.0653,-0.0654,-0.0631,-0.0597,-0.051,-0.0495,0,0,0,-0.0561,-0.0556,-0.0585,-0.0569,-0.0615,-0.0593,-0.0639,-0.0638,-0.0631,-0.0644,-0.0645,-0.0632,-0.0596,-0.0508,-0.0573,0,0,0,0,-0.0599,-0.0604,-0.0622,-0.0642,-0.0675,-0.0668,-0.0683,-0.0663,-0.0651,-0.0646,-0.0665,-0.0643,-0.0587,-0.0587,-0.066,-0.066,-0.066,-0.066,-0.066,-0.0599,-0.0628,-0.0659,-0.0687,-0.072,-0.0733,-0.0714,-0.069,-0.0703,-0.0688,-0.0651,-0.0603,-0.0611,-0.0694,-0.0694,-0.0694,-0.0694,-0.0694,-0.0694,-0.0631,-0.0657,-0.0664,-0.0706,-0.0713,-0.0744,-0.0714,-0.0696,-0.0625,-0.0658,-0.0605,-0.06,-0.0693,-0.0693,-0.0693,-0.0694,-0.0694,-0.0694,-0.0694,-0.0639,-0.0656,-0.0672,-0.0721,-0.0712,-0.0722,-0.0662,-0.0639,-0.0579,-0.0543,-0.0496,-0.0559,-0.0526,-0.0502,-0.0502,-0.0501,-0.0501,-0.05,-0.05,-0.0658,-0.0672,-0.0709,-0.0729,-0.0737,-0.0705,-0.0627,-0.0554,-0.0494,-0.0449,-0.0512,-0.0536,-0.0543,-0.0515,-0.0492,-0.0494,-0.0495,-0.0495,-0.0496,-0.0718,-0.0717,-0.0777,-0.0796,-0.0792,-0.0745,-0.0654,-0.0462,-0.0366,-0.0276,-0.0382,-0.039,-0.0372,-0.0381,-0.0347,-0.0273,-0.0272,-0.0272,0,-0.0753,-0.0755,-0.0832,-0.0863,-0.0848,-0.0775,-0.0615,-0.0489,-0.0368,-0.0384,-0.0405,-0.0537,-0.0539,-0.0536,-0.0542,-0.0512,0,0,0,-0.0798,-0.0811,-0.0866,-0.0887,-0.0872,-0.0688,-0.0568,-0.0495,-0.0394,-0.025,-0.0262,-0.0265,-0.0444,-0.0468,-0.0457,-0.0465,-0.0418,0,0]}]]